Weather in Myitkyina

Myanmar     25˚24′55″N   97˚22′47″E
temp.,
°C
wind,
m/s
gust,
m/s
humid.,
%
clouds,
%
prec.,
mm/h
press.,
hPa
HPBL,
m
28 november, sat
sat2800:30+13˚nne22635 0.0 101952
03:30+12˚nne12652 0.0 101953
06:30+12˚nne226310 0.0 102058
09:30+20˚n134187 0.0 1021310
12:30+27˚nnw123088 0.0 1017631
15:30+26˚ssw113990 0.0 101549
18:30+17˚n116263 0.0 101723
21:30+15˚nne12630 0.0 101940
29 november, sun
sun2900:30+14˚nne12642 0.0 101846
03:30+13˚nne12650 0.0 101852
06:30+12˚nne22680 0.0 101963
09:30+20˚n13430 0.0 1020329
12:30+28˚wnw11290 0.0 1017762
15:30+26˚ssw11400 0.0 101568
18:30+17˚nne11600 0.0 101723
21:30+15˚nne12640 0.0 101930
30 november, mon
mon3000:30+14˚nne12660 0.0 101849
03:30+13˚nne22690 0.0 101861
06:30+12˚nne12710 0.0 101961
09:30+20˚n13470 0.0 1020328
12:30+28˚nw12310 0.0 1017716
15:30+27˚s11420 0.0 1015139
18:30+18˚nne11630 0.0 101723
21:30+16˚nne12680 0.0 101933
1 december, tue
tue100:30+15˚nne12710 0.0 101850
03:30+14˚nne12730 0.0 101855
06:30+13˚nne12720 0.0 102061
09:30+20˚n13470 0.0 1020332
12:30+28˚nw11330 0.0 1017731
15:30+26˚ssw11430 0.0 1015481
18:30+18˚nne11670 0.0 101723
21:30+16˚nne12720 0.0 101841
2 december, wed
wed200:30+15˚nne12740 0.0 101851
03:30+14˚nne12770 0.0 101761
06:30+13˚nne12770 0.0 101768
09:30+21˚n13490 0.0 1018357
12:30+27˚wsw11360 0.0 1014827
15:30+26˚ssw11430 0.0 1012728
18:30+18˚nne11690 0.0 101423
21:30+16˚nne12740 0.0 101639